Time,TemperatureF,DewpointF,PressureIn,WindDirection,WindDirectionDegrees,WindSpeedMPH,WindSpeedGustMPH,Humidity,HourlyPrecipIn,Conditions,Clouds,dailyrainin,SoftwareType,DateUTC
2013-01-18 00:04:00,61.8,48.2,30.06,West,278,2.0,4.0,61,0.00,,,0.00,WSDL version 420,2013-01-18 05:04:00,
2013-01-18 00:09:00,61.7,48.1,30.06,West,267,1.5,4.0,61,0.00,,,0.00,WSDL version 420,2013-01-18 05:09:00,
2013-01-18 00:14:00,61.5,47.6,30.06,NW,309,2.0,3.6,60,0.00,,,0.00,WSDL version 420,2013-01-18 05:14:00,
2013-01-18 00:19:00,61.3,47.5,30.06,West,281,2.3,3.6,61,0.00,,,0.00,WSDL version 420,2013-01-18 05:19:00,
2013-01-18 00:24:00,61.3,47.8,30.06,West,263,1.0,3.1,61,0.00,,,0.00,WSDL version 420,2013-01-18 05:24:00,
2013-01-18 00:29:00,61.2,47.5,30.06,West,276,1.0,2.2,61,0.00,,,0.00,WSDL version 420,2013-01-18 05:29:00,
2013-01-18 00:34:00,61.0,47.1,30.06,NNW,345,0.7,2.0,60,0.00,,,0.00,WSDL version 420,2013-01-18 05:34:00,
2013-01-18 00:39:00,61.0,47.0,30.06,West,270,0.3,2.0,60,0.00,,,0.00,WSDL version 420,2013-01-18 05:39:00,
2013-01-18 00:44:00,60.8,47.0,30.06,WSW,252,0.4,2.0,61,0.00,,,0.00,WSDL version 420,2013-01-18 05:44:00,
2013-01-18 00:49:00,60.7,46.9,30.06,NW,304,1.4,3.8,60,0.00,,,0.00,WSDL version 420,2013-01-18 05:49:00,
2013-01-18 00:54:00,60.6,46.7,30.06,WNW,302,1.3,4.5,60,0.00,,,0.00,WSDL version 420,2013-01-18 05:54:00,
2013-01-18 00:59:00,60.5,47.0,30.06,West,266,1.8,4.5,61,0.00,,,0.00,WSDL version 420,2013-01-18 05:59:00,
2013-01-18 01:04:00,60.4,46.9,30.06,SSW,196,1.4,2.9,61,0.00,,,0.00,WSDL version 420,2013-01-18 06:04:00,
2013-01-18 01:09:00,60.4,46.9,30.06,NNE,13,1.4,3.4,61,0.00,,,0.00,WSDL version 420,2013-01-18 06:09:00,
2013-01-18 01:14:00,60.2,46.7,30.06,NNW,338,1.4,3.4,61,0.00,,,0.00,WSDL version 420,2013-01-18 06:14:00,
2013-01-18 01:19:00,60.1,46.7,30.06,NW,323,0.9,2.7,62,0.00,,,0.00,WSDL version 420,2013-01-18 06:19:00,
2013-01-18 01:24:00,60.1,46.9,30.06,NNW,342,0.5,2.7,62,0.00,,,0.00,WSDL version 420,2013-01-18 06:24:00,
2013-01-18 01:29:00,59.9,46.8,30.06,NNW,338,1.1,2.9,62,0.00,,,0.00,WSDL version 420,2013-01-18 06:29:00,
2013-01-18 01:34:00,59.6,46.4,30.06,North,8,1.6,2.9,62,0.00,,,0.00,WSDL version 420,2013-01-18 06:34:00,
2013-01-18 01:39:00,59.4,45.9,30.06,NW,319,1.5,2.7,61,0.00,,,0.00,WSDL version 420,2013-01-18 06:39:00,
2013-01-18 01:44:00,59.2,45.8,30.06,NNW,341,1.8,3.4,61,0.00,,,0.00,WSDL version 420,2013-01-18 06:44:00,
2013-01-18 01:49:00,59.1,45.8,30.06,North,349,0.0,3.4,61,0.00,,,0.00,WSDL version 420,2013-01-18 06:49:00,
2013-01-18 01:54:00,58.9,45.8,30.06,WNW,293,0.0,2.7,62,0.00,,,0.00,WSDL version 420,2013-01-18 06:54:00,
2013-01-18 01:59:00,58.8,45.8,30.06,WNW,287,0.9,2.7,62,0.00,,,0.00,WSDL version 420,2013-01-18 06:59:00,
2013-01-18 02:04:00,58.6,45.8,30.06,NE,34,0.0,2.9,63,0.00,,,0.00,WSDL version 420,2013-01-18 07:04:00,
2013-01-18 02:09:00,58.6,46.1,30.06,NW,304,1.2,2.9,63,0.00,,,0.00,WSDL version 420,2013-01-18 07:09:00,
2013-01-18 02:14:00,58.5,45.9,30.06,North,354,0.7,2.9,63,0.00,,,0.00,WSDL version 420,2013-01-18 07:14:00,
2013-01-18 02:19:00,58.3,45.8,30.06,West,281,0.0,2.9,63,0.00,,,0.00,WSDL version 420,2013-01-18 07:19:00,
2013-01-18 02:24:00,58.2,46.1,30.03,NNW,344,0.4,0.9,64,0.00,,,0.00,WSDL version 420,2013-01-18 07:24:00,
2013-01-18 02:29:00,58.1,46.0,30.03,NW,319,0.0,1.6,64,0.00,,,0.00,WSDL version 420,2013-01-18 07:29:00,
2013-01-18 02:34:00,57.9,45.8,30.03,NNE,28,0.0,1.6,64,0.00,,,0.00,WSDL version 420,2013-01-18 07:34:00,
2013-01-18 02:39:00,57.8,45.7,30.06,NW,325,0.2,2.0,64,0.00,,,0.00,WSDL version 420,2013-01-18 07:39:00,
2013-01-18 02:44:00,57.7,45.6,30.06,NNW,338,0.8,2.0,64,0.00,,,0.00,WSDL version 420,2013-01-18 07:44:00,
2013-01-18 02:49:00,57.6,45.5,30.06,South,177,0.0,2.0,64,0.00,,,0.00,WSDL version 420,2013-01-18 07:49:00,
2013-01-18 02:54:00,57.5,45.5,30.06,NW,304,0.7,3.4,64,0.00,,,0.00,WSDL version 420,2013-01-18 07:54:00,
2013-01-18 02:59:00,57.4,45.3,30.06,NW,320,0.5,3.4,64,0.00,,,0.00,WSDL version 420,2013-01-18 07:59:00,
2013-01-18 03:04:00,57.2,45.1,30.06,West,278,0.0,2.5,64,0.00,,,0.00,WSDL version 420,2013-01-18 08:04:00,
2013-01-18 03:09:00,57.2,45.2,30.06,NNE,26,0.5,2.0,65,0.00,,,0.00,WSDL version 420,2013-01-18 08:09:00,
2013-01-18 03:14:00,57.0,45.4,30.06,North,360,0.7,2.2,65,0.00,,,0.00,WSDL version 420,2013-01-18 08:14:00,
2013-01-18 03:19:00,56.8,45.2,30.06,NW,319,0.4,2.7,65,0.00,,,0.00,WSDL version 420,2013-01-18 08:19:00,
2013-01-18 03:24:00,56.8,45.1,30.06,WNW,297,1.4,2.7,65,0.00,,,0.00,WSDL version 420,2013-01-18 08:24:00,
2013-01-18 03:29:00,56.7,45.0,30.06,NNW,338,0.9,2.7,65,0.00,,,0.00,WSDL version 420,2013-01-18 08:29:00,
2013-01-18 03:34:00,56.6,44.9,30.06,NNW,338,1.0,2.5,64,0.00,,,0.00,WSDL version 420,2013-01-18 08:34:00,
2013-01-18 03:39:00,56.4,44.4,30.06,North,356,1.1,3.1,64,0.00,,,0.00,WSDL version 420,2013-01-18 08:39:00,
2013-01-18 03:44:00,56.2,43.9,30.06,NW,320,2.2,3.4,63,0.00,,,0.00,WSDL version 420,2013-01-18 08:44:00,
2013-01-18 03:49:00,56.1,43.7,30.06,WNW,300,1.1,4.0,63,0.00,,,0.00,WSDL version 420,2013-01-18 08:49:00,
2013-01-18 03:54:00,56.1,43.7,30.09,North,360,1.1,4.0,63,0.00,,,0.00,WSDL version 420,2013-01-18 08:54:00,
2013-01-18 03:59:00,55.9,43.5,30.09,NE,35,0.0,3.6,63,0.00,,,0.00,WSDL version 420,2013-01-18 08:59:00,
2013-01-18 04:04:00,55.8,43.4,30.09,NNW,332,1.6,2.0,63,0.00,,,0.00,WSDL version 420,2013-01-18 09:04:00,
2013-01-18 04:09:00,55.6,43.2,30.09,East,101,1.5,4.0,63,0.00,,,0.00,WSDL version 420,2013-01-18 09:09:00,
2013-01-18 04:14:00,55.4,43.1,30.09,NW,326,0.8,4.0,63,0.00,,,0.00,WSDL version 420,2013-01-18 09:14:00,
2013-01-18 04:19:00,55.3,43.2,30.09,NW,311,1.0,2.0,64,0.00,,,0.00,WSDL version 420,2013-01-18 09:19:00,
2013-01-18 04:24:00,55.1,43.2,30.09,NE,34,1.5,2.9,64,0.00,,,0.00,WSDL version 420,2013-01-18 09:24:00,
2013-01-18 04:29:00,54.9,42.6,30.09,North,6,1.3,2.9,63,0.00,,,0.00,WSDL version 420,2013-01-18 09:29:00,
2013-01-18 04:34:00,54.9,42.6,30.09,WSW,239,1.5,3.1,64,0.00,,,0.00,WSDL version 420,2013-01-18 09:34:00,
2013-01-18 04:39:00,54.7,42.7,30.09,NW,308,0.7,4.3,64,0.00,,,0.00,WSDL version 420,2013-01-18 09:39:00,
2013-01-18 04:44:00,54.6,42.7,30.09,WNW,302,0.8,4.3,64,0.00,,,0.00,WSDL version 420,2013-01-18 09:44:00,
2013-01-18 04:49:00,54.4,42.5,30.09,NNE,14,1.3,2.5,64,0.00,,,0.00,WSDL version 420,2013-01-18 09:49:00,
2013-01-18 04:54:00,54.2,42.6,30.09,East,100,1.1,2.5,65,0.00,,,0.00,WSDL version 420,2013-01-18 09:54:00,
2013-01-18 04:59:00,54.1,42.6,30.09,NNW,342,0.7,2.5,65,0.00,,,0.00,WSDL version 420,2013-01-18 09:59:00,
2013-01-18 05:04:00,54.0,42.5,30.09,NW,315,1.1,2.5,65,0.00,,,0.00,WSDL version 420,2013-01-18 10:04:00,
2013-01-18 05:09:00,53.7,42.4,30.09,NW,326,0.4,2.2,66,0.00,,,0.00,WSDL version 420,2013-01-18 10:09:00,
2013-01-18 05:14:00,53.5,42.4,30.09,NNE,26,2.0,3.4,66,0.00,,,0.00,WSDL version 420,2013-01-18 10:14:00,
2013-01-18 05:19:00,53.4,42.7,30.09,NW,304,1.9,3.4,67,0.00,,,0.00,WSDL version 420,2013-01-18 10:19:00,
2013-01-18 05:24:00,53.3,42.6,30.12,NE,45,1.5,2.7,67,0.00,,,0.00,WSDL version 420,2013-01-18 10:24:00,
2013-01-18 05:29:00,53.1,42.4,30.12,North,356,1.0,2.7,67,0.00,,,0.00,WSDL version 420,2013-01-18 10:29:00,
2013-01-18 05:34:00,52.9,42.2,30.12,WSW,248,1.3,2.2,67,0.00,,,0.00,WSDL version 420,2013-01-18 10:34:00,
2013-01-18 05:39:00,52.7,42.3,30.12,North,349,2.1,3.4,68,0.00,,,0.00,WSDL version 420,2013-01-18 10:39:00,
2013-01-18 05:44:00,52.5,42.3,30.12,NW,311,2.3,3.8,68,0.00,,,0.00,WSDL version 420,2013-01-18 10:44:00,
2013-01-18 05:49:00,52.3,42.1,30.12,ESE,113,1.1,3.8,68,0.00,,,0.00,WSDL version 420,2013-01-18 10:49:00,
2013-01-18 05:54:00,52.3,42.1,30.12,North,11,1.5,3.8,68,0.00,,,0.00,WSDL version 420,2013-01-18 10:54:00,
2013-01-18 05:59:00,52.3,42.0,30.12,North,349,1.1,3.8,68,0.00,,,0.00,WSDL version 420,2013-01-18 10:59:00,
2013-01-18 06:04:00,52.2,41.9,30.12,North,9,1.2,2.9,68,0.00,,,0.00,WSDL version 420,2013-01-18 11:04:00,
2013-01-18 06:09:00,52.1,41.8,30.12,NNE,15,2.4,3.4,68,0.00,,,0.00,WSDL version 420,2013-01-18 11:09:00,
2013-01-18 06:14:00,52.0,41.8,30.12,West,270,0.9,3.4,68,0.00,,,0.00,WSDL version 420,2013-01-18 11:14:00,
2013-01-18 06:19:00,52.0,42.1,30.12,WNW,287,0.6,2.0,69,0.00,,,0.00,WSDL version 420,2013-01-18 11:19:00,
2013-01-18 06:24:00,51.8,42.0,30.12,WSW,240,0.0,2.0,69,0.00,,,0.00,WSDL version 420,2013-01-18 11:24:00,
2013-01-18 06:29:00,51.8,42.0,30.12,WNW,285,0.0,1.3,69,0.00,,,0.00,WSDL version 420,2013-01-18 11:29:00,
2013-01-18 06:34:00,51.6,41.9,30.12,WSW,243,0.7,1.6,70,0.00,,,0.00,WSDL version 420,2013-01-18 11:34:00,
2013-01-18 06:39:00,51.7,42.2,30.12,NW,320,0.4,2.7,70,0.00,,,0.00,WSDL version 420,2013-01-18 11:39:00,
2013-01-18 06:44:00,51.9,42.4,30.12,WSW,248,0.6,2.7,70,0.00,,,0.00,WSDL version 420,2013-01-18 11:44:00,
2013-01-18 06:49:00,52.0,42.6,30.12,West,270,0.9,2.2,70,0.00,,,0.00,WSDL version 420,2013-01-18 11:49:00,
2013-01-18 06:54:00,52.3,42.8,30.15,North,8,1.4,3.1,70,0.00,,,0.00,WSDL version 420,2013-01-18 11:54:00,
2013-01-18 06:59:00,52.4,42.9,30.15,WNW,300,0.7,3.1,70,0.00,,,0.00,WSDL version 420,2013-01-18 11:59:00,
2013-01-18 07:04:00,52.6,43.1,30.15,WSW,248,0.5,2.9,70,0.00,,,0.00,WSDL version 420,2013-01-18 12:04:00,
2013-01-18 07:09:00,52.7,43.0,30.15,WNW,293,2.3,4.3,69,0.00,,,0.00,WSDL version 420,2013-01-18 12:09:00,
2013-01-18 07:14:00,52.8,42.9,30.15,NE,56,1.8,4.3,69,0.00,,,0.00,WSDL version 420,2013-01-18 12:14:00,
2013-01-18 07:19:00,52.9,43.0,30.15,WNW,302,1.7,3.4,69,0.00,,,0.00,WSDL version 420,2013-01-18 12:19:00,
2013-01-18 07:24:00,52.9,43.1,30.15,WNW,297,2.1,3.1,69,0.00,,,0.00,WSDL version 420,2013-01-18 12:24:00,
2013-01-18 07:29:00,52.9,42.7,30.15,NNW,332,1.4,4.0,68,0.00,,,0.00,WSDL version 420,2013-01-18 12:29:00,
2013-01-18 07:34:00,53.1,42.8,30.15,North,3,1.9,4.0,68,0.00,,,0.00,WSDL version 420,2013-01-18 12:34:00,
2013-01-18 07:39:00,53.1,42.8,30.15,NW,304,2.2,3.6,68,0.00,,,0.00,WSDL version 420,2013-01-18 12:39:00,
2013-01-18 07:44:00,53.2,43.0,30.15,NNW,341,1.5,3.6,68,0.00,,,0.00,WSDL version 420,2013-01-18 12:44:00,
2013-01-18 07:49:00,53.4,43.1,30.15,NNW,344,0.2,3.4,68,0.00,,,0.00,WSDL version 420,2013-01-18 12:49:00,
2013-01-18 07:54:00,53.6,43.2,30.18,WNW,299,1.2,4.3,67,0.00,,,0.00,WSDL version 420,2013-01-18 12:54:00,
2013-01-18 07:59:00,53.4,42.6,30.18,NNW,347,2.0,4.3,66,0.00,,,0.00,WSDL version 420,2013-01-18 12:59:00,
2013-01-18 08:04:00,53.3,42.2,30.18,NNW,341,2.5,4.3,66,0.00,,,0.00,WSDL version 420,2013-01-18 13:04:00,
2013-01-18 08:09:00,53.2,41.3,30.18,WNW,296,1.8,4.3,64,0.00,,,0.00,WSDL version 420,2013-01-18 13:09:00,
2013-01-18 08:14:00,53.5,41.5,30.18,WSW,252,2.4,4.7,63,0.00,,,0.00,WSDL version 420,2013-01-18 13:14:00,
2013-01-18 08:19:00,53.8,41.4,30.18,NW,318,2.5,5.4,62,0.00,,,0.00,WSDL version 420,2013-01-18 13:19:00,
2013-01-18 08:24:00,53.8,41.1,30.18,West,281,2.2,5.4,62,0.00,,,0.00,WSDL version 420,2013-01-18 13:24:00,
2013-01-18 08:29:00,53.6,40.2,30.18,WNW,293,2.9,6.5,60,0.00,,,0.00,WSDL version 420,2013-01-18 13:29:00,
2013-01-18 08:34:00,53.4,39.9,30.18,NW,315,2.8,6.5,60,0.00,,,0.00,WSDL version 420,2013-01-18 13:34:00,
2013-01-18 08:39:00,53.5,40.0,30.15,NNW,335,0.7,4.3,60,0.00,,,0.00,WSDL version 420,2013-01-18 13:39:00,
2013-01-18 08:44:00,53.9,40.5,30.15,NW,323,1.1,3.4,61,0.00,,,0.00,WSDL version 420,2013-01-18 13:44:00,
2013-01-18 08:49:00,54.1,40.6,30.15,NW,309,1.9,3.6,59,0.00,,,0.00,WSDL version 420,2013-01-18 13:49:00,
2013-01-18 08:54:00,54.0,39.7,30.18,NNW,334,2.8,4.0,59,0.00,,,0.00,WSDL version 420,2013-01-18 13:54:00,
2013-01-18 08:59:00,54.0,39.8,30.18,NNW,338,2.0,4.7,59,0.00,,,0.00,WSDL version 420,2013-01-18 13:59:00,
2013-01-18 09:04:00,54.0,39.5,30.18,NW,319,2.6,5.4,58,0.00,,,0.00,WSDL version 420,2013-01-18 14:04:00,
2013-01-18 09:09:00,54.1,39.9,30.18,NNW,338,3.1,5.8,59,0.00,,,0.00,WSDL version 420,2013-01-18 14:09:00,
2013-01-18 09:14:00,54.2,40.2,30.18,NNW,338,2.2,5.8,59,0.00,,,0.00,WSDL version 420,2013-01-18 14:14:00,
2013-01-18 09:19:00,54.6,40.6,30.18,NNW,338,2.6,3.4,59,0.00,,,0.00,WSDL version 420,2013-01-18 14:19:00,
2013-01-18 09:24:00,54.7,40.7,30.18,WSW,248,2.3,3.1,59,0.00,,,0.00,WSDL version 420,2013-01-18 14:24:00,
2013-01-18 09:29:00,54.9,40.9,30.18,NNE,30,1.7,3.4,59,0.00,,,0.00,WSDL version 420,2013-01-18 14:29:00,
2013-01-18 09:34:00,55.3,41.3,30.18,North,360,1.7,3.4,59,0.00,,,0.00,WSDL version 420,2013-01-18 14:34:00,
2013-01-18 09:39:00,55.9,41.6,30.18,WSW,254,3.3,4.9,58,0.00,,,0.00,WSDL version 420,2013-01-18 14:39:00,
2013-01-18 09:44:00,56.0,41.6,30.18,NW,321,1.2,4.9,59,0.00,,,0.00,WSDL version 420,2013-01-18 14:44:00,
2013-01-18 09:49:00,56.4,42.1,30.18,NW,326,1.7,3.4,58,0.00,,,0.00,WSDL version 420,2013-01-18 14:49:00,
2013-01-18 09:54:00,56.5,41.4,30.18,NNW,329,2.8,6.3,57,0.00,,,0.00,WSDL version 420,2013-01-18 14:54:00,
2013-01-18 09:59:00,56.7,42.0,30.18,NNW,328,2.2,6.3,58,0.00,,,0.00,WSDL version 420,2013-01-18 14:59:00,
2013-01-18 10:04:00,57.1,42.3,30.18,NW,315,2.7,4.0,57,0.00,,,0.00,WSDL version 420,2013-01-18 15:04:00,
2013-01-18 10:09:00,57.4,42.4,30.18,North,357,1.8,4.0,58,0.00,,,0.00,WSDL version 420,2013-01-18 15:09:00,
2013-01-18 10:14:00,57.6,42.5,30.18,NW,325,2.4,3.8,57,0.00,,,0.00,WSDL version 420,2013-01-18 15:14:00,
2013-01-18 10:19:00,58.0,43.2,30.18,North,356,2.0,3.8,58,0.00,,,0.00,WSDL version 420,2013-01-18 15:19:00,
2013-01-18 10:24:00,58.3,43.5,30.18,NW,321,2.5,6.5,57,0.00,,,0.00,WSDL version 420,2013-01-18 15:24:00,
2013-01-18 10:29:00,58.3,43.0,30.18,WNW,299,2.1,6.5,57,0.00,,,0.00,WSDL version 420,2013-01-18 15:29:00,
2013-01-18 10:34:00,58.6,43.5,30.18,North,360,1.8,4.7,57,0.00,,,0.00,WSDL version 420,2013-01-18 15:34:00,
2013-01-18 10:39:00,59.0,43.5,30.18,NW,325,3.5,5.4,55,0.00,,,0.00,WSDL version 420,2013-01-18 15:39:00,
2013-01-18 10:44:00,59.2,43.5,30.18,WNW,296,2.6,5.4,56,0.00,,,0.00,WSDL version 420,2013-01-18 15:44:00,
2013-01-18 10:49:00,59.5,44.2,30.18,WNW,302,2.5,4.0,56,0.00,,,0.00,WSDL version 420,2013-01-18 15:49:00,
2013-01-18 10:54:00,60.0,44.4,30.18,North,356,2.4,4.0,57,0.00,,,0.00,WSDL version 420,2013-01-18 15:54:00,
2013-01-18 10:59:00,60.1,44.4,30.18,NNW,341,2.2,4.0,56,0.00,,,0.00,WSDL version 420,2013-01-18 15:59:00,
2013-01-18 11:04:00,60.5,45.1,30.18,North,3,1.7,4.0,57,0.00,,,0.00,WSDL version 420,2013-01-18 16:04:00,
2013-01-18 11:09:00,60.7,44.8,30.18,NNE,32,2.3,3.6,55,0.00,,,0.00,WSDL version 420,2013-01-18 16:09:00,
2013-01-18 11:14:00,60.9,44.4,30.18,NW,312,2.2,4.9,54,0.00,,,0.00,WSDL version 420,2013-01-18 16:14:00,
2013-01-18 11:19:00,61.3,45.0,30.18,NNW,341,1.9,4.9,55,0.00,,,0.00,WSDL version 420,2013-01-18 16:19:00,
2013-01-18 11:24:00,61.6,45.3,30.15,NW,318,1.8,3.6,55,0.00,,,0.00,WSDL version 420,2013-01-18 16:24:00,
2013-01-18 11:29:00,62.1,46.0,30.15,North,360,2.4,3.8,55,0.00,,,0.00,WSDL version 420,2013-01-18 16:29:00,
2013-01-18 11:34:00,62.4,45.7,30.15,North,350,2.5,3.8,54,0.00,,,0.00,WSDL version 420,2013-01-18 16:34:00,
2013-01-18 11:39:00,62.9,45.9,30.18,NNE,32,2.5,3.8,54,0.00,,,0.00,WSDL version 420,2013-01-18 16:39:00,
2013-01-18 11:44:00,63.7,46.8,30.18,West,276,2.6,3.8,53,0.00,,,0.00,WSDL version 420,2013-01-18 16:44:00,
2013-01-18 11:49:00,64.3,46.6,30.18,WNW,289,2.1,4.0,52,0.00,,,0.00,WSDL version 420,2013-01-18 16:49:00,
2013-01-18 11:54:00,64.4,46.5,30.18,NNW,334,2.4,4.3,53,0.00,,,0.00,WSDL version 420,2013-01-18 16:54:00,
2013-01-18 11:59:00,64.9,47.6,30.18,NW,323,2.4,4.3,53,0.00,,,0.00,WSDL version 420,2013-01-18 16:59:00,
2013-01-18 12:04:00,64.7,46.7,30.18,NNE,13,2.3,3.6,52,0.00,,,0.00,WSDL version 420,2013-01-18 17:04:00,
2013-01-18 12:09:00,64.6,46.6,30.18,NNW,331,1.8,4.3,52,0.00,,,0.00,WSDL version 420,2013-01-18 17:09:00,
2013-01-18 12:14:00,65.0,47.3,30.18,NE,51,2.6,4.3,53,0.00,,,0.00,WSDL version 420,2013-01-18 17:14:00,
2013-01-18 12:19:00,65.7,47.9,30.18,ENE,64,2.3,4.3,53,0.00,,,0.00,WSDL version 420,2013-01-18 17:19:00,
2013-01-18 12:24:00,66.2,48.1,30.15,North,4,1.6,4.3,52,0.00,,,0.00,WSDL version 420,2013-01-18 17:24:00,
2013-01-18 12:29:00,66.2,47.6,30.15,NNE,23,1.9,3.1,51,0.00,,,0.00,WSDL version 420,2013-01-18 17:29:00,
2013-01-18 12:34:00,66.5,48.1,30.15,WNW,284,1.9,4.9,52,0.00,,,0.00,WSDL version 420,2013-01-18 17:34:00,
2013-01-18 12:39:00,66.6,48.2,30.15,North,8,2.4,4.9,51,0.00,,,0.00,WSDL version 420,2013-01-18 17:39:00,
2013-01-18 12:44:00,66.9,48.5,30.15,NE,53,2.5,3.6,51,0.00,,,0.00,WSDL version 420,2013-01-18 17:44:00,
2013-01-18 12:49:00,66.9,48.6,30.15,NNW,329,1.7,3.6,52,0.00,,,0.00,WSDL version 420,2013-01-18 17:49:00,
2013-01-18 12:54:00,67.2,48.6,30.15,ENE,71,2.7,4.3,51,0.00,,,0.00,WSDL version 420,2013-01-18 17:54:00,
2013-01-18 12:59:00,67.6,49.2,30.15,NW,326,1.3,4.3,52,0.00,,,0.00,WSDL version 420,2013-01-18 17:59:00,
2013-01-18 13:04:00,68.0,49.6,30.15,North,352,1.5,3.4,51,0.00,,,0.00,WSDL version 420,2013-01-18 18:04:00,
2013-01-18 13:09:00,68.3,50.0,30.12,North,4,2.7,3.8,52,0.00,,,0.00,WSDL version 420,2013-01-18 18:09:00,
2013-01-18 13:14:00,68.4,49.6,30.12,NNE,23,2.1,3.8,51,0.00,,,0.00,WSDL version 420,2013-01-18 18:14:00,
2013-01-18 13:19:00,68.8,50.0,30.12,NW,326,2.0,3.8,51,0.00,,,0.00,WSDL version 420,2013-01-18 18:19:00,
2013-01-18 13:24:00,69.1,50.0,30.09,North,356,1.0,2.9,51,0.00,,,0.00,WSDL version 420,2013-01-18 18:24:00,
2013-01-18 13:29:00,69.5,50.2,30.09,NE,48,2.6,3.8,49,0.00,,,0.00,WSDL version 420,2013-01-18 18:29:00,
2013-01-18 13:34:00,69.4,49.7,30.09,North,360,1.9,4.3,50,0.00,,,0.00,WSDL version 420,2013-01-18 18:34:00,
2013-01-18 13:39:00,69.7,49.9,30.12,ENE,71,3.0,5.4,48,0.00,,,0.00,WSDL version 420,2013-01-18 18:39:00,
2013-01-18 13:44:00,70.1,49.9,30.12,NNE,26,1.2,5.4,49,0.00,,,0.00,WSDL version 420,2013-01-18 18:44:00,
2013-01-18 13:49:00,70.5,50.1,30.12,NNE,17,2.3,4.9,49,0.00,,,0.00,WSDL version 420,2013-01-18 18:49:00,
2013-01-18 13:54:00,70.7,50.6,30.12,NNE,20,2.1,4.9,49,0.00,,,0.00,WSDL version 420,2013-01-18 18:54:00,
2013-01-18 13:59:00,71.1,51.0,30.12,NNW,338,2.1,3.6,49,0.00,,,0.00,WSDL version 420,2013-01-18 18:59:00,
2013-01-18 14:04:00,71.6,51.6,30.12,North,352,1.8,3.6,49,0.00,,,0.00,WSDL version 420,2013-01-18 19:04:00,
2013-01-18 14:09:00,71.8,51.3,30.12,North,352,2.5,3.8,48,0.00,,,0.00,WSDL version 420,2013-01-18 19:09:00,
2013-01-18 14:14:00,72.1,51.9,30.12,North,5,1.9,3.8,49,0.00,,,0.00,WSDL version 420,2013-01-18 19:14:00,
2013-01-18 14:19:00,72.0,51.3,30.12,North,6,2.6,3.6,48,0.00,,,0.00,WSDL version 420,2013-01-18 19:19:00,
2013-01-18 14:24:00,71.5,50.8,30.12,North,11,1.9,3.6,48,0.00,,,0.00,WSDL version 420,2013-01-18 19:24:00,
2013-01-18 14:29:00,71.7,51.1,30.12,North,3,2.4,4.0,49,0.00,,,0.00,WSDL version 420,2013-01-18 19:29:00,
2013-01-18 14:34:00,72.1,51.9,30.12,North,356,2.0,4.0,49,0.00,,,0.00,WSDL version 420,2013-01-18 19:34:00,
2013-01-18 14:39:00,72.2,51.6,30.12,NE,45,2.3,3.8,48,0.00,,,0.00,WSDL version 420,2013-01-18 19:39:00,
2013-01-18 14:44:00,71.3,50.4,30.12,NE,54,3.6,6.7,47,0.00,,,0.00,WSDL version 420,2013-01-18 19:44:00,
2013-01-18 14:49:00,70.6,50.2,30.12,NNE,15,1.9,6.7,49,0.00,,,0.00,WSDL version 420,2013-01-18 19:49:00,
2013-01-18 14:54:00,70.8,50.6,30.12,WSW,252,3.2,5.8,49,0.00,,,0.00,WSDL version 420,2013-01-18 19:54:00,
2013-01-18 14:59:00,71.1,50.9,30.12,ENE,62,4.4,7.6,49,0.00,,,0.00,WSDL version 420,2013-01-18 19:59:00,
2013-01-18 15:04:00,70.8,50.2,30.12,ENE,68,3.4,7.6,48,0.00,,,0.00,WSDL version 420,2013-01-18 20:04:00,
2013-01-18 15:09:00,70.8,50.5,30.12,NNE,23,3.1,5.6,49,0.00,,,0.00,WSDL version 420,2013-01-18 20:09:00,
2013-01-18 15:14:00,71.6,51.3,30.12,NNE,26,2.8,6.5,48,0.00,,,0.00,WSDL version 420,2013-01-18 20:14:00,
2013-01-18 15:19:00,71.6,50.2,30.12,NE,54,5.3,7.8,47,0.00,,,0.00,WSDL version 420,2013-01-18 20:19:00,
2013-01-18 15:24:00,71.6,49.9,30.12,ENE,64,4.5,7.8,46,0.00,,,0.00,WSDL version 420,2013-01-18 20:24:00,
2013-01-18 15:29:00,72.4,51.3,30.12,North,352,2.2,7.4,48,0.00,,,0.00,WSDL version 420,2013-01-18 20:29:00,
2013-01-18 15:34:00,71.9,50.2,30.12,North,6,3.0,4.9,46,0.00,,,0.00,WSDL version 420,2013-01-18 20:34:00,
2013-01-18 15:39:00,71.2,50.0,30.12,NNE,13,2.5,4.9,47,0.00,,,0.00,WSDL version 420,2013-01-18 20:39:00,
2013-01-18 15:44:00,70.6,49.4,30.12,NE,39,3.4,4.5,47,0.00,,,0.00,WSDL version 420,2013-01-18 20:44:00,
2013-01-18 15:49:00,70.9,50.4,30.12,NW,318,0.0,4.5,49,0.00,,,0.00,WSDL version 420,2013-01-18 20:49:00,
2013-01-18 15:54:00,71.6,50.5,30.12,NNE,17,2.4,5.8,47,0.00,,,0.00,WSDL version 420,2013-01-18 20:54:00,
2013-01-18 15:59:00,72.2,51.3,30.12,NNE,23,2.0,5.8,48,0.00,,,0.00,WSDL version 420,2013-01-18 20:59:00,
2013-01-18 16:04:00,72.1,51.1,30.12,NNW,335,2.8,7.8,47,0.00,,,0.00,WSDL version 420,2013-01-18 21:04:00,
2013-01-18 16:09:00,71.5,50.1,30.12,NE,45,3.5,7.8,47,0.00,,,0.00,WSDL version 420,2013-01-18 21:09:00,
2013-01-18 16:14:00,70.8,49.5,30.12,NNE,29,2.4,5.6,47,0.00,,,0.00,WSDL version 420,2013-01-18 21:14:00,
2013-01-18 16:19:00,70.4,49.2,30.12,NNE,16,2.7,6.3,47,0.00,,,0.00,WSDL version 420,2013-01-18 21:19:00,
2013-01-18 16:24:00,70.1,49.0,30.12,NE,34,3.9,6.3,47,0.00,,,0.00,WSDL version 420,2013-01-18 21:24:00,
2013-01-18 16:29:00,69.9,49.0,30.12,North,10,1.5,6.3,48,0.00,,,0.00,WSDL version 420,2013-01-18 21:29:00,
2013-01-18 16:34:00,70.0,49.7,30.12,NNE,16,1.4,2.9,48,0.00,,,0.00,WSDL version 420,2013-01-18 21:34:00,
2013-01-18 16:39:00,70.1,49.1,30.12,NW,323,1.4,4.9,48,0.00,,,0.00,WSDL version 420,2013-01-18 21:39:00,
2013-01-18 16:44:00,70.2,49.4,30.12,North,360,1.8,4.9,48,0.00,,,0.00,WSDL version 420,2013-01-18 21:44:00,
2013-01-18 16:49:00,70.2,49.0,30.12,North,360,1.6,4.7,47,0.00,,,0.00,WSDL version 420,2013-01-18 21:49:00,
2013-01-18 16:54:00,70.1,48.9,30.12,NNW,346,1.5,4.7,47,0.00,,,0.00,WSDL version 420,2013-01-18 21:54:00,
2013-01-18 16:59:00,69.9,48.7,30.12,NNE,13,1.6,3.6,47,0.00,,,0.00,WSDL version 420,2013-01-18 21:59:00,
2013-01-18 17:04:00,69.8,48.7,30.12,NE,51,3.4,8.9,47,0.00,,,0.00,WSDL version 420,2013-01-18 22:04:00,
2013-01-18 17:09:00,69.7,48.6,30.12,NNE,26,1.7,8.9,47,0.00,,,0.00,WSDL version 420,2013-01-18 22:09:00,
2013-01-18 17:14:00,69.6,48.5,30.12,NNE,29,2.8,4.3,47,0.00,,,0.00,WSDL version 420,2013-01-18 22:14:00,
2013-01-18 17:19:00,69.4,48.3,30.12,NNE,30,1.3,3.6,47,0.00,,,0.00,WSDL version 420,2013-01-18 22:19:00,
2013-01-18 17:24:00,69.1,48.5,30.12,ENE,68,2.2,3.6,48,0.00,,,0.00,WSDL version 420,2013-01-18 22:24:00,
2013-01-18 17:29:00,68.9,48.5,30.12,NE,34,1.3,3.6,48,0.00,,,0.00,WSDL version 420,2013-01-18 22:29:00,
2013-01-18 17:34:00,68.7,48.8,30.12,NE,39,1.9,5.4,49,0.00,,,0.00,WSDL version 420,2013-01-18 22:34:00,
2013-01-18 17:39:00,68.5,48.6,30.12,North,3,1.7,5.4,49,0.00,,,0.00,WSDL version 420,2013-01-18 22:39:00,
2013-01-18 17:44:00,68.3,48.4,30.12,NE,37,0.1,4.9,49,0.00,,,0.00,WSDL version 420,2013-01-18 22:44:00,
2013-01-18 17:49:00,68.0,48.5,30.12,NNE,25,0.9,4.9,50,0.00,,,0.00,WSDL version 420,2013-01-18 22:49:00,
2013-01-18 17:54:00,67.8,48.8,30.12,NE,38,1.1,4.9,51,0.00,,,0.00,WSDL version 420,2013-01-18 22:54:00,
2013-01-18 17:59:00,67.6,48.9,30.12,NNE,31,0.2,2.7,51,0.00,,,0.00,WSDL version 420,2013-01-18 22:59:00,
2013-01-18 18:04:00,67.6,49.0,30.12,NE,42,0.8,4.0,52,0.00,,,0.00,WSDL version 420,2013-01-18 23:04:00,
2013-01-18 18:09:00,67.5,49.3,30.12,NNE,14,0.6,4.0,52,0.00,,,0.00,WSDL version 420,2013-01-18 23:09:00,
2013-01-18 18:14:00,67.3,49.1,30.12,NNE,29,0.0,1.6,52,0.00,,,0.00,WSDL version 420,2013-01-18 23:14:00,
2013-01-18 18:19:00,67.2,49.5,30.12,East,87,0.0,0.0,53,0.00,,,0.00,WSDL version 420,2013-01-18 23:19:00,
2013-01-18 18:24:00,67.1,49.9,30.12,NW,309,0.0,1.1,54,0.00,,,0.00,WSDL version 420,2013-01-18 23:24:00,
2013-01-18 18:29:00,67.1,50.4,30.12,NNW,341,2.1,5.8,56,0.00,,,0.00,WSDL version 420,2013-01-18 23:29:00,
2013-01-18 18:34:00,67.1,50.9,30.12,NNW,334,0.1,5.8,56,0.00,,,0.00,WSDL version 420,2013-01-18 23:34:00,
2013-01-18 18:39:00,67.0,51.2,30.15,NE,35,0.2,4.3,57,0.00,,,0.00,WSDL version 420,2013-01-18 23:39:00,
2013-01-18 18:44:00,67.1,51.4,30.15,NNE,26,0.4,4.3,57,0.00,,,0.00,WSDL version 420,2013-01-18 23:44:00,
2013-01-18 18:49:00,67.0,51.8,30.15,NE,39,1.2,2.9,58,0.00,,,0.00,WSDL version 420,2013-01-18 23:49:00,
2013-01-18 18:54:00,66.9,51.7,30.15,NE,35,1.3,4.0,58,0.00,,,0.00,WSDL version 420,2013-01-18 23:54:00,
2013-01-18 18:59:00,66.9,51.7,30.15,NNE,28,0.5,4.0,58,0.00,,,0.00,WSDL version 420,2013-01-18 23:59:00,
2013-01-18 19:04:00,66.9,51.7,30.15,NE,56,0.5,3.1,58,0.00,,,0.00,WSDL version 420,2013-01-19 00:04:00,
2013-01-18 19:09:00,66.7,51.4,30.18,NE,50,0.0,2.5,58,0.00,,,0.00,WSDL version 420,2013-01-19 00:09:00,
2013-01-18 19:14:00,66.6,51.3,30.18,NE,42,0.4,1.3,58,0.00,,,0.00,WSDL version 420,2013-01-19 00:14:00,
2013-01-18 19:19:00,66.5,51.3,30.18,NE,53,0.4,2.0,58,0.00,,,0.00,WSDL version 420,2013-01-19 00:19:00,
2013-01-18 19:24:00,66.3,51.1,30.15,ENE,64,0.9,2.0,58,0.00,,,0.00,WSDL version 420,2013-01-19 00:24:00,
2013-01-18 19:29:00,66.2,51.0,30.15,NE,34,0.8,1.6,58,0.00,,,0.00,WSDL version 420,2013-01-19 00:29:00,
2013-01-18 19:34:00,66.2,51.0,30.15,North,9,0.5,2.5,58,0.00,,,0.00,WSDL version 420,2013-01-19 00:34:00,
2013-01-18 19:39:00,66.2,51.0,30.18,NNE,23,1.3,2.9,58,0.00,,,0.00,WSDL version 420,2013-01-19 00:39:00,
2013-01-18 19:44:00,66.2,51.0,30.18,NNW,330,0.1,3.1,58,0.00,,,0.00,WSDL version 420,2013-01-19 00:44:00,
2013-01-18 19:49:00,66.0,51.3,30.18,NNE,31,0.8,3.1,59,0.00,,,0.00,WSDL version 420,2013-01-19 00:49:00,
2013-01-18 19:54:00,66.0,51.3,30.15,NE,45,0.0,3.1,59,0.00,,,0.00,WSDL version 420,2013-01-19 00:54:00,
2013-01-18 19:59:00,66.0,51.3,30.15,North,9,0.0,3.1,59,0.00,,,0.00,WSDL version 420,2013-01-19 00:59:00,
2013-01-18 20:04:00,65.8,51.0,30.15,NE,35,0.0,0.0,59,0.00,,,0.00,WSDL version 420,2013-01-19 01:04:00,
2013-01-18 20:09:00,65.7,51.0,30.18,NE,39,0.0,1.1,59,0.00,,,0.00,WSDL version 420,2013-01-19 01:09:00,
2013-01-18 20:14:00,65.6,50.9,30.18,NE,45,0.0,1.1,59,0.00,,,0.00,WSDL version 420,2013-01-19 01:14:00,
2013-01-18 20:19:00,65.4,50.7,30.18,ENE,68,0.0,0.0,59,0.00,,,0.00,WSDL version 420,2013-01-19 01:19:00,
2013-01-18 20:24:00,65.3,50.6,30.15,NE,45,0.3,2.9,59,0.00,,,0.00,WSDL version 420,2013-01-19 01:24:00,
2013-01-18 20:29:00,65.2,50.5,30.15,NE,45,0.0,2.9,59,0.00,,,0.00,WSDL version 420,2013-01-19 01:29:00,
2013-01-18 20:34:00,64.9,50.5,30.15,NE,45,0.0,0.0,60,0.00,,,0.00,WSDL version 420,2013-01-19 01:34:00,
2013-01-18 20:39:00,64.6,50.4,30.15,North,360,0.0,0.0,60,0.00,,,0.00,WSDL version 420,2013-01-19 01:39:00,
2013-01-18 20:44:00,64.4,50.4,30.15,North,360,0.0,0.0,61,0.00,,,0.00,WSDL version 420,2013-01-19 01:44:00,
2013-01-18 20:49:00,64.1,50.5,30.15,North,360,0.0,0.0,62,0.00,,,0.00,WSDL version 420,2013-01-19 01:49:00,
2013-01-18 20:54:00,63.8,50.5,30.15,North,360,0.0,0.0,62,0.00,,,0.00,WSDL version 420,2013-01-19 01:54:00,
2013-01-18 20:59:00,63.6,50.6,30.15,North,360,0.0,0.0,63,0.00,,,0.00,WSDL version 420,2013-01-19 01:59:00,
2013-01-18 21:04:00,63.4,50.6,30.15,North,360,0.0,0.0,63,0.00,,,0.00,WSDL version 420,2013-01-19 02:04:00,
2013-01-18 21:09:00,63.1,50.6,30.15,North,360,0.0,0.0,64,0.00,,,0.00,WSDL version 420,2013-01-19 02:09:00,
2013-01-18 21:14:00,62.9,50.7,30.15,North,360,0.0,0.0,65,0.00,,,0.00,WSDL version 420,2013-01-19 02:14:00,
2013-01-18 21:19:00,62.7,50.8,30.15,North,360,0.0,0.0,65,0.00,,,0.00,WSDL version 420,2013-01-19 02:19:00,
2013-01-18 21:24:00,62.5,50.8,30.15,North,360,0.0,0.0,66,0.00,,,0.00,WSDL version 420,2013-01-19 02:24:00,
2013-01-18 21:29:00,62.2,50.8,30.15,North,360,0.0,0.0,66,0.00,,,0.00,WSDL version 420,2013-01-19 02:29:00,
2013-01-18 21:34:00,62.0,50.7,30.15,North,360,0.0,0.0,67,0.00,,,0.00,WSDL version 420,2013-01-19 02:34:00,
2013-01-18 21:39:00,61.9,50.8,30.18,SW,225,0.0,0.0,67,0.00,,,0.00,WSDL version 420,2013-01-19 02:39:00,
2013-01-18 21:44:00,61.8,50.9,30.18,SW,225,0.0,0.0,68,0.00,,,0.00,WSDL version 420,2013-01-19 02:44:00,
2013-01-18 21:49:00,61.7,51.0,30.18,SW,225,0.0,0.0,68,0.00,,,0.00,WSDL version 420,2013-01-19 02:49:00,
2013-01-18 21:54:00,61.4,50.9,30.15,SW,225,0.0,0.0,69,0.00,,,0.00,WSDL version 420,2013-01-19 02:54:00,
2013-01-18 21:59:00,61.3,51.0,30.15,SW,225,0.0,0.0,69,0.00,,,0.00,WSDL version 420,2013-01-19 02:59:00,
2013-01-18 22:04:00,61.2,51.2,30.15,SW,225,0.0,0.0,70,0.00,,,0.00,WSDL version 420,2013-01-19 03:04:00,
2013-01-18 22:09:00,60.9,51.1,30.15,SW,225,0.0,0.0,70,0.00,,,0.00,WSDL version 420,2013-01-19 03:09:00,
2013-01-18 22:14:00,60.7,51.1,30.15,SW,225,0.0,0.0,71,0.00,,,0.00,WSDL version 420,2013-01-19 03:14:00,
2013-01-18 22:19:00,60.6,51.2,30.15,SW,225,0.0,0.0,71,0.00,,,0.00,WSDL version 420,2013-01-19 03:19:00,
2013-01-18 22:24:00,60.5,51.2,30.15,SW,225,0.0,0.0,71,0.00,,,0.00,WSDL version 420,2013-01-19 03:24:00,
2013-01-18 22:29:00,60.4,51.2,30.15,SW,225,0.0,0.0,72,0.00,,,0.00,WSDL version 420,2013-01-19 03:29:00,
2013-01-18 22:34:00,60.3,51.2,30.15,WSW,248,0.0,0.0,72,0.00,,,0.00,WSDL version 420,2013-01-19 03:34:00,
2013-01-18 22:39:00,60.2,51.2,30.15,WSW,248,0.0,0.0,72,0.00,,,0.00,WSDL version 420,2013-01-19 03:39:00,
2013-01-18 22:44:00,60.1,51.4,30.15,WSW,248,0.0,0.0,73,0.00,,,0.00,WSDL version 420,2013-01-19 03:44:00,
2013-01-18 22:49:00,60.0,51.3,30.15,WSW,248,0.0,0.0,73,0.00,,,0.00,WSDL version 420,2013-01-19 03:49:00,
2013-01-18 22:54:00,59.9,51.2,30.15,WSW,248,0.0,0.0,73,0.00,,,0.00,WSDL version 420,2013-01-19 03:54:00,
2013-01-18 22:59:00,59.8,51.1,30.15,West,281,0.0,0.0,73,0.00,,,0.00,WSDL version 420,2013-01-19 03:59:00,
2013-01-18 23:04:00,59.6,51.3,30.15,WNW,293,0.0,0.0,74,0.00,,,0.00,WSDL version 420,2013-01-19 04:04:00,
2013-01-18 23:09:00,59.5,51.2,30.12,WNW,293,0.0,0.0,74,0.00,,,0.00,WSDL version 420,2013-01-19 04:09:00,
2013-01-18 23:14:00,59.4,51.1,30.12,SSW,203,0.0,0.0,74,0.00,,,0.00,WSDL version 420,2013-01-19 04:14:00,
2013-01-18 23:19:00,59.3,51.2,30.12,SSW,203,0.0,0.0,75,0.00,,,0.00,WSDL version 420,2013-01-19 04:19:00,
2013-01-18 23:24:00,59.2,51.3,30.12,SSW,203,0.0,0.0,75,0.00,,,0.00,WSDL version 420,2013-01-19 04:24:00,
2013-01-18 23:29:00,59.2,51.5,30.12,SSW,203,0.0,0.0,76,0.00,,,0.00,WSDL version 420,2013-01-19 04:29:00,
2013-01-18 23:34:00,59.1,51.6,30.12,SSW,203,0.0,0.0,76,0.00,,,0.00,WSDL version 420,2013-01-19 04:34:00,
2013-01-18 23:39:00,59.0,51.5,30.12,SSW,203,0.0,0.0,76,0.00,,,0.00,WSDL version 420,2013-01-19 04:39:00,
2013-01-18 23:44:00,58.8,51.6,30.12,SSW,203,0.0,0.0,77,0.00,,,0.00,WSDL version 420,2013-01-19 04:44:00,
2013-01-18 23:49:00,58.8,51.6,30.12,SSW,203,0.0,0.0,77,0.00,,,0.00,WSDL version 420,2013-01-19 04:49:00,
2013-01-18 23:54:00,58.8,51.6,30.12,SSW,203,0.0,0.0,77,0.00,,,0.00,WSDL version 420,2013-01-19 04:54:00,
2013-01-18 23:59:00,58.7,51.7,30.12,SSW,203,0.0,0.0,78,0.00,,,0.00,WSDL version 420,2013-01-19 04:59:00,